SCP
0 0 0 0 0 0 0 0 0 0 0 0 0 0 0 0 0 0 0 0 0 0
0 0 0 0 0 0 0 0 0 0 0 0 0 0 0 0 0 0 0 0 0 0
0 0 0 0 0 0 0 0 0 0 0 0 0 0 0 0 0 0 0 0 0 0
0 0 0 0 0 0 0 0 0 0 0 0 0 0 0 0 0 0 0 0 0 0
0 0 0 0 0 0 0 0 0 0 0 0 0 0 0 0 0 0 0 0 0 0
0 0 0 0 0 0 0 0 0 0 0 0 0 0 0 0 0 0 0 0 0 0
0 0 0 0 0 0 0 0 0 0 0 0 0 0 0 0 0 0 0 0 0 0
0 0 0 0 0 0 0 0 0 0 0 0 0 0 0 0 0 0 0 0 0 0
0 0 0 0 0 0 0 0 0 0 0 0 0 0 0 0 0 0 0 0 0 0
0 0 0 0 0 0 0 0 0 0 0 0 0 0 0 0 0 0 0 0 0 0
0 0 0 0 0 0 0 0 0 0 0 0 0 0 0 0 0 0 0 0 0 0
0 0 0 0 0 0 0 0 0 0 0 0 0 0 0 0 0 0 0 0 0 0
0 0 0 0 0 0 0 0 0 0 0 0 0 0 0 0 0 0 0 0 0 0
0 0 0 0 0 0 0 0 0 0 0 0 0 0 0 0 0 0 0 0 0 0
Wind_Speed_500mb
35 43 30 27 32 30 19 14 12 11 8 9 10 9 13 17 20 21 22 25 25 25
40 39 28 35 32 27 20 14 12 9 8 10 7 12 17 20 20 21 24 28 29 28
41 41 41 40 29 23 18 15 10 4 4 5 12 18 22 23 23 25 31 31 30 30
39 40 41 34 26 19 15 9 5 4 6 10 14 19 23 27 28 31 32 30 28 25
44 40 38 33 26 19 13 8 2 1 5 10 17 22 27 32 28 29 27 23 23 15
42 38 34 28 23 16 8 4 2 4 9 15 20 27 22 24 24 19 15 15 18 18
34 30 27 21 16 9 4 3 5 9 14 20 20 15 16 15 14 13 16 15 14 17
29 24 20 17 14 9 3 3 6 12 16 11 10 10 12 14 14 10 10 10 14 16
25 20 16 13 9 4 5 9 12 17 18 11 10 13 17 15 15 10 9 8 11 15
16 15 13 8 4 9 12 12 11 16 18 13 13 15 18 16 11 4 7 2 7 17
14 12 9 7 13 14 9 10 12 17 17 16 14 17 19 17 9 2 2 3 15 16
7 7 10 18 17 14 8 8 14 16 16 16 16 16 17 17 8 8 3 6 16 14
12 15 18 17 13 9 6 8 14 13 15 14 16 15 15 15 15 10 5 4 5 9
15 15 16 13 13 8 3 4 9 9 9 14 15 18 17 16 15 14 10 7 9 13
Wind_Direction_500mb
183 200 180 192 195 199 187 174 190 199 227 259 269 299 319 319 320 323 322 329 341 342
158 167 154 206 180 172 164 174 181 200 224 255 311 325 325 326 334 333 334 333 332 332
179 187 189 195 178 159 159 167 173 190 237 291 315 331 336 342 341 332 326 321 319 320
152 156 163 162 157 165 163 159 190 239 292 322 329 336 332 332 324 316 318 319 321 326
141 146 153 157 159 168 177 185 225 320 329 323 326 327 324 324 326 321 318 325 334 356
140 143 141 146 158 162 173 128 49 331 326 320 317 323 332 332 338 350 8 32 22 16
134 135 139 139 136 137 123 44 350 335 322 318 327 342 343 354 359 22 35 38 38 23
125 131 125 124 125 116 89 3 350 356 344 347 357 8 18 6 360 11 52 61 33 15
120 115 112 109 104 92 88 68 27 23 19 24 30 25 14 8 357 18 87 61 29 1
117 124 128 124 97 90 87 63 39 25 20 33 35 26 10 358 350 51 120 52 351 4
141 141 133 124 116 102 85 67 36 21 34 34 39 30 17 8 2 201 258 263 341 355
151 144 131 120 107 103 92 44 25 31 37 34 37 32 26 21 1 2 328 291 335 351
115 111 106 107 104 103 104 18 31 28 25 25 29 22 19 15 12 331 322 337 10 336
129 104 110 112 129 130 125 48 32 11 26 23 17 12 1 357 352 355 354 331 321 333
Wind_Speed_850mb
35 43 30 27 32 30 19 14 12 11 8 9 10 9 13 17 20 21 22 25 25 25
40 39 28 35 32 27 20 14 12 9 8 10 7 12 17 20 20 21 24 28 29 28
41 41 41 40 29 23 18 15 10 4 4 5 12 18 22 23 23 25 31 31 30 30
39 40 41 34 26 19 15 9 5 4 6 10 14 19 23 27 28 31 32 30 28 25
44 40 38 33 26 19 13 8 2 1 5 10 17 22 27 32 28 29 27 23 23 15
42 38 34 28 23 16 8 4 2 4 9 15 20 27 22 24 24 19 15 15 18 18
34 30 27 21 16 9 4 3 5 9 14 20 20 15 16 15 14 13 16 15 14 17
29 24 20 17 14 9 3 3 6 12 16 11 10 10 12 14 14 10 10 10 14 16
25 20 16 13 9 4 5 9 12 17 18 11 10 13 17 15 15 10 9 8 11 15
16 15 13 8 4 9 12 12 11 16 18 13 13 15 18 16 11 4 7 2 7 17
14 12 9 7 13 14 9 10 12 17 17 16 14 17 19 17 9 2 2 3 15 16
7 7 10 18 17 14 8 8 14 16 16 16 16 16 17 17 8 8 3 6 16 14
12 15 18 17 13 9 6 8 14 13 15 14 16 15 15 15 15 10 5 4 5 9
15 15 16 13 13 8 3 4 9 9 9 14 15 18 17 16 15 14 10 7 9 13
Wind_Direction_850mb
183 200 180 192 195 199 187 174 190 199 227 259 269 299 319 319 320 323 322 329 341 342
158 167 154 206 180 172 164 174 181 200 224 255 311 325 325 326 334 333 334 333 332 332
179 187 189 195 178 159 159 167 173 190 237 291 315 331 336 342 341 332 326 321 319 320
152 156 163 162 157 165 163 159 190 239 292 322 329 336 332 332 324 316 318 319 321 326
141 146 153 157 159 168 177 185 225 320 329 323 326 327 324 324 326 321 318 325 334 356
140 143 141 146 158 162 173 128 49 331 326 320 317 323 332 332 338 350 8 32 22 16
134 135 139 139 136 137 123 44 350 335 322 318 327 342 343 354 359 22 35 38 38 23
125 131 125 124 125 116 89 3 350 356 344 347 357 8 18 6 360 11 52 61 33 15
120 115 112 109 104 92 88 68 27 23 19 24 30 25 14 8 357 18 87 61 29 1
117 124 128 124 97 90 87 63 39 25 20 33 35 26 10 358 350 51 120 52 351 4
141 141 133 124 116 102 85 67 36 21 34 34 39 30 17 8 2 201 258 263 341 355
151 144 131 120 107 103 92 44 25 31 37 34 37 32 26 21 1 2 328 291 335 351
115 111 106 107 104 103 104 18 31 28 25 25 29 22 19 15 12 331 322 337 10 336
129 104 110 112 129 130 125 48 32 11 26 23 17 12 1 357 352 355 354 331 321 333